星链-6203 (STARLINK-6203 )

导读 | 星芒AI

STARLINK-6203 是 SpaceX Starlink 卫星互联网项目中的一颗低轨卫星。该卫星属于 Starlink 群体的第六批发射任务,旨在为全球用户提供高速互联网服务。它运行在约 550 公里的近地轨道,采用先进的通信技术,支持宽带接入和低延迟传输。Starlink 项目致力于改善偏远地区的网络覆盖,推动全球数字连接。

基本信息
目录编号:
56899
目录名称:
STARLINK-6203
国际标识:
2023-083Z
轨道中心:
EARTH
卫星名称:
星链-6203
卫星全名:
星链-6203 (STARLINK-6203 )
卫星状态:
在轨 (已飞行923 天)
发射日期:
2023-06-12 UTC
国别 :
美国 (US)
星等 :
--
轨道信息
数据来源 国际轨道数据 AOE轨道数据
星历时间 2025-12-21T20:08:42+0800
7小时前
查看轨道信息
2025-12-15T15:00:00+0800
6天前
查看轨道信息
半长轴 6937.23km 6937.234km
偏心率 0.0001208 0.000001
轨道倾角 42.998° 43.002°
近地点辐角 191.856° 171.535°
升交点赤经 146.244° 180.021°
平近点角 168.225° 15.452°
近地点 558.254km 559.092km
远地点 559.932km 559.106km
周期 95.838分钟 95.838分钟
每日圈数 15.025318 15.025304
详细信息
固有亮度:
5
最大亮度:
2.4
卫星平台:
Starlink v1.5
覆盖范围:
全球
运营商:
太空探索技术公司
运营商所在国:
美国
制造商(研发单位):
太空探索技术公司
制造商所在国:
美国
使用方式:
暂无
卫星简介
星链(Starlink)计划是由太空探索技术公司(SpaceX)提出的一个巨型低轨卫星互联网星座项目,计划在2019年至2024年间在太空搭建由约1.2万颗卫星组成的“星链”网络,其中1584颗将部署在地球上空550千米处的近地轨道,并从2020年开始工作。该卫星仍在工作。
2D轨道图
3D轨道图
轨道高度分析图
轨道倾角分析图
轨道综合分析图
查看轨道综合分析图